�������l�o���
Date,Time,MP-1(��Sv/h),MP-2(��Sv/h),MP-3(��Sv/h),MP-4(��Sv/h),MP-5(��Sv/h),MP-6(��Sv/h),MP-7(��Sv/h),MP-8(��Sv/h),����,����(m/s),���J
2023/08/24,00:00,0.548,0.827,0.504,1.018,0.745,0.328,0.582,0.541,��,8.3,��
2023/08/24,00:10,0.547,0.827,0.508,1.020,0.745,0.328,0.582,0.538,��,7.8,��
2023/08/24,00:20,0.545,0.826,0.507,1.017,0.746,0.327,0.582,0.538,��,8.2,��
2023/08/24,00:30,0.548,0.828,0.506,1.018,0.746,0.327,0.582,0.538,��,7.4,��
2023/08/24,00:40,0.549,0.827,0.505,1.019,0.746,0.327,0.580,0.539,��,7.2,��
2023/08/24,00:50,0.548,0.827,0.507,1.019,0.745,0.328,0.582,0.539,��,6.3,��
2023/08/24,01:00,0.546,0.826,0.505,1.019,0.746,0.328,0.581,0.538,��,5.7,��
2023/08/24,01:10,0.546,0.824,0.506,1.019,0.744,0.327,0.582,0.537,��,5.8,��
2023/08/24,01:20,0.547,0.826,0.506,1.017,0.744,0.326,0.582,0.538,��,6.3,��
2023/08/24,01:30,0.548,0.826,0.506,1.018,0.745,0.326,0.582,0.539,��,6.8,��
2023/08/24,01:40,0.547,0.826,0.504,1.018,0.746,0.326,0.583,0.539,��,5.8,��
2023/08/24,01:50,0.548,0.826,0.505,1.017,0.744,0.327,0.579,0.537,��,6.6,��
2023/08/24,02:00,0.548,0.828,0.505,1.017,0.746,0.327,0.581,0.536,��,6.7,��
2023/08/24,02:10,0.546,0.826,0.506,1.016,0.744,0.327,0.582,0.539,��,6.8,��
2023/08/24,02:20,0.547,0.826,0.507,1.017,0.747,0.326,0.581,0.539,��,6.0,��
2023/08/24,02:30,0.548,0.826,0.506,1.015,0.745,0.327,0.582,0.538,��,6.9,��
2023/08/24,02:40,0.546,0.826,0.506,1.018,0.745,0.327,0.582,0.538,��,7.1,��
2023/08/24,02:50,0.548,0.827,0.506,1.018,0.745,0.327,0.581,0.538,��,6.3,��
2023/08/24,03:00,0.548,0.827,0.505,1.016,0.745,0.326,0.583,0.539,��,5.8,��
2023/08/24,03:10,0.546,0.824,0.506,1.015,0.744,0.326,0.580,0.537,��,6.5,��
2023/08/24,03:20,0.549,0.827,0.507,1.016,0.745,0.327,0.581,0.538,��,5.7,��
2023/08/24,03:30,0.548,0.826,0.505,1.017,0.746,0.326,0.582,0.536,��쐼,4.5,��
2023/08/24,03:40,0.547,0.827,0.506,1.017,0.745,0.327,0.581,0.539,��,4.6,��
2023/08/24,03:50,0.548,0.827,0.505,1.016,0.744,0.327,0.581,0.539,��,5.7,��
2023/08/24,04:00,0.546,0.826,0.507,1.018,0.746,0.325,0.580,0.537,��,5.2,��
2023/08/24,04:10,0.548,0.827,0.506,1.018,0.746,0.326,0.579,0.537,��,5.5,��
2023/08/24,04:20,0.546,0.828,0.507,1.019,0.746,0.326,0.580,0.537,��,6.1,��
2023/08/24,04:30,0.547,0.826,0.506,1.017,0.745,0.327,0.581,0.538,��,6.3,��
2023/08/24,04:40,0.549,0.827,0.506,1.018,0.745,0.326,0.581,0.537,��,5.5,��
2023/08/24,04:50,0.547,0.827,0.506,1.016,0.745,0.327,0.581,0.540,��,5.4,��
2023/08/24,05:00,0.548,0.827,0.506,1.018,0.746,0.327,0.581,0.538,��,4.3,��
2023/08/24,05:10,0.547,0.827,0.506,1.017,0.745,0.326,0.580,0.536,��,4.1,��
2023/08/24,05:20,0.547,0.827,0.504,1.020,0.746,0.326,0.580,0.538,��,4.7,��
2023/08/24,05:30,0.549,0.824,0.507,1.019,0.744,0.327,0.580,0.539,��,4.4,��
2023/08/24,05:40,0.549,0.826,0.505,1.018,0.746,0.327,0.580,0.539,��,4.8,��
2023/08/24,05:50,0.546,0.828,0.505,1.020,0.745,0.328,0.581,0.538,��쓌,3.4,��
2023/08/24,06:00,0.548,0.827,0.506,1.014,0.745,0.327,0.582,0.538,��,3.7,��
2023/08/24,06:10,0.548,0.824,0.505,1.015,0.746,0.327,0.580,0.537,��,4.0,��
2023/08/24,06:20,0.548,0.826,0.507,1.017,0.745,0.327,0.581,0.538,��,3.9,��
2023/08/24,06:30,0.547,0.825,0.505,1.017,0.744,0.326,0.580,0.539,��,4.4,��
2023/08/24,06:40,0.546,0.825,0.506,1.017,0.746,0.326,0.582,0.539,��,4.9,��
2023/08/24,06:50,0.548,0.826,0.507,1.017,0.747,0.327,0.581,0.538,��,4.6,��
2023/08/24,07:00,0.547,0.826,0.505,1.017,0.747,0.326,0.581,0.538,��,5.6,��
2023/08/24,07:10,0.548,0.825,0.506,1.017,0.745,0.326,0.581,0.538,��,5.7,��
2023/08/24,07:20,0.547,0.824,0.506,1.018,0.745,0.327,0.583,0.537,��,5.2,��
2023/08/24,07:30,0.548,0.826,0.506,1.018,0.745,0.326,0.581,0.538,��,4.1,��
2023/08/24,07:40,0.549,0.824,0.506,1.019,0.745,0.327,0.580,0.539,��,4.7,��
2023/08/24,07:50,0.550,0.826,0.506,1.018,0.745,0.326,0.581,0.538,��,5.0,��
2023/08/24,08:00,0.548,0.827,0.507,1.019,0.745,0.327,0.582,0.539,��쓌,6.3,��
2023/08/24,08:10,0.548,0.826,0.504,1.017,0.744,0.327,0.583,0.538,��쓌,8.0,��
2023/08/24,08:20,0.547,0.827,0.506,1.018,0.746,0.326,0.581,0.540,��쓌,9.4,��
2023/08/24,08:30,0.547,0.828,0.505,1.018,0.745,0.325,0.583,0.539,��쓌,9.7,��
2023/08/24,08:40,0.545,0.827,0.506,1.019,0.747,0.326,0.582,0.538,��쓌,9.9,��
2023/08/24,08:50,0.547,0.826,0.506,1.018,0.746,0.327,0.583,0.537,��쓌,9.9,��
2023/08/24,09:00,0.547,0.827,0.506,1.019,0.748,0.326,0.584,0.536,��쓌,10.2,��
2023/08/24,09:10,0.547,0.826,0.506,1.018,0.745,0.326,0.583,0.536,��쓌,10.6,��
2023/08/24,09:20,0.546,0.826,0.504,1.020,0.745,0.326,0.583,0.536,��쓌,11.4,��
2023/08/24,09:30,0.546,0.825,0.507,1.019,0.746,0.325,0.581,0.537,��쓌,12.4,��
2023/08/24,09:40,0.547,0.826,0.506,1.020,0.747,0.326,0.582,0.537,��,10.2,��
2023/08/24,09:50,0.547,0.825,0.504,1.020,0.747,0.327,0.583,0.537,��쓌,10.2,��
2023/08/24,10:00,0.547,0.826,0.507,1.020,0.748,0.325,0.581,0.536,��쓌,9.7,��
2023/08/24,10:10,0.548,0.826,0.505,1.021,0.746,0.326,0.582,0.539,��쓌,11.0,��
2023/08/24,10:20,0.547,0.828,0.506,1.020,0.748,0.328,0.580,0.539,��쓌,12.7,��
2023/08/24,10:30,0.547,0.827,0.506,1.020,0.748,0.327,0.582,0.539,��쓌,12.7,��
2023/08/24,10:40,0.548,0.824,0.506,1.021,0.750,0.326,0.581,0.536,��,10.8,��
2023/08/24,10:50,0.548,0.826,0.507,1.021,0.749,0.327,0.581,0.538,��쓌,10.8,��
2023/08/24,11:00,0.547,0.829,0.507,1.023,0.750,0.327,0.582,0.538,��쓌,12.7,��
2023/08/24,11:10,0.550,0.829,0.506,1.024,0.750,0.326,0.583,0.539,��쓌,11.6,��
2023/08/24,11:20,0.548,0.828,0.505,1.023,0.750,0.327,0.582,0.538,��쓌,11.9,��
2023/08/24,11:30,0.549,0.827,0.508,1.021,0.751,0.327,0.584,0.539,��쓌,13.0,��
2023/08/24,11:40,0.548,0.828,0.508,1.023,0.751,0.328,0.582,0.539,��쓌,12.4,��
2023/08/24,11:50,0.550,0.830,0.511,1.020,0.752,0.327,0.583,0.538,��쓌,12.0,��
2023/08/24,12:00,0.549,0.829,0.509,1.020,0.753,0.327,0.583,0.537,��쓌,13.5,��
2023/08/24,12:10,0.551,0.830,0.508,1.021,0.752,0.327,0.581,0.539,��쓌,11.0,��
2023/08/24,12:20,0.549,0.831,0.509,1.020,0.754,0.326,0.585,0.538,��쓌,13.0,��
2023/08/24,12:30,0.550,0.834,0.509,1.021,0.753,0.327,0.585,0.539,��,12.8,��
2023/08/24,12:40,0.547,0.832,0.508,1.024,0.751,0.327,0.584,0.539,��쓌,11.7,��
2023/08/24,12:50,0.550,0.831,0.508,1.023,0.753,0.326,0.586,0.539,��쓌,13.5,��
2023/08/24,13:00,0.550,0.832,0.511,1.023,0.752,0.326,0.585,0.539,��쓌,14.1,��
2023/08/24,13:10,0.550,0.833,0.510,1.024,0.753,0.327,0.586,0.540,��쓌,12.7,��
2023/08/24,13:20,0.550,0.832,0.511,1.023,0.753,0.326,0.585,0.540,��,10.9,��
2023/08/24,13:30,0.548,0.832,0.510,1.024,0.754,0.327,0.585,0.541,��쓌,12.8,��
2023/08/24,13:40,0.548,0.832,0.509,1.024,0.752,0.327,0.585,0.540,��,13.0,��
2023/08/24,13:50,0.549,0.830,0.508,1.024,0.752,0.327,0.584,0.541,��쓌,11.1,��
2023/08/24,14:00,0.550,0.831,0.510,1.024,0.751,0.326,0.586,0.540,��쓌,11.9,��
2023/08/24,14:10,0.548,0.832,0.510,1.024,0.753,0.326,0.584,0.539,��쓌,11.8,��
2023/08/24,14:20,0.550,0.832,0.510,1.025,0.752,0.329,0.584,0.540,��쓌,12.7,��
2023/08/24,14:30,0.550,0.832,0.509,1.025,0.752,0.329,0.587,0.540,��쓌,10.9,��
2023/08/24,14:40,0.549,0.833,0.509,1.024,0.751,0.329,0.585,0.539,��쓌,9.9,��
2023/08/24,14:50,0.550,0.833,0.512,1.026,0.752,0.328,0.585,0.539,��,10.5,��
2023/08/24,15:00,0.549,0.833,0.511,1.024,0.751,0.329,0.587,0.540,��,11.6,��
2023/08/24,15:10,0.550,0.833,0.511,1.022,0.751,0.329,0.586,0.540,��,12.5,��
2023/08/24,15:20,0.549,0.833,0.509,1.023,0.752,0.328,0.583,0.539,��쓌,12.4,��
2023/08/24,15:30,0.551,0.833,0.512,1.022,0.752,0.328,0.585,0.538,��쓌,8.3,��
2023/08/24,15:40,0.550,0.835,0.510,1.023,0.752,0.328,0.584,0.539,��,10.5,��
2023/08/24,15:50,0.548,0.833,0.508,1.023,0.752,0.327,0.584,0.538,��쓌,10.6,��
2023/08/24,16:00,0.550,0.834,0.510,1.024,0.750,0.328,0.585,0.539,��쓌,11.6,��
2023/08/24,16:10,0.548,0.833,0.509,1.023,0.752,0.328,0.585,0.539,��,10.2,��
2023/08/24,16:20,0.550,0.833,0.509,1.024,0.752,0.327,0.584,0.538,��,10.0,��
2023/08/24,16:30,0.549,0.830,0.509,1.026,0.752,0.329,0.584,0.540,��,9.8,��
2023/08/24,16:40,0.549,0.832,0.508,1.026,0.753,0.327,0.583,0.540,��,9.9,��
2023/08/24,16:50,0.551,0.832,0.508,1.027,0.752,0.327,0.582,0.539,��,9.8,��
2023/08/24,17:00,0.550,0.832,0.508,1.029,0.753,0.328,0.583,0.540,��,9.2,��
2023/08/24,17:10,0.550,0.833,0.509,1.027,0.753,0.327,0.584,0.540,��,10.2,��
2023/08/24,17:20,0.549,0.833,0.510,1.025,0.752,0.328,0.584,0.539,��,8.9,��
2023/08/24,17:30,0.549,0.832,0.510,1.026,0.751,0.328,0.584,0.539,��,8.2,��
2023/08/24,17:40,0.550,0.833,0.510,1.023,0.751,0.327,0.582,0.539,��,8.5,��
2023/08/24,17:50,0.550,0.832,0.510,1.025,0.752,0.328,0.583,0.539,��,8.4,��
2023/08/24,18:00,0.551,0.832,0.509,1.024,0.750,0.327,0.582,0.538,��,7.3,��
2023/08/24,18:10,0.550,0.832,0.508,1.026,0.751,0.328,0.583,0.538,��,6.5,��
2023/08/24,18:20,0.548,0.833,0.508,1.026,0.751,0.327,0.583,0.540,��,8.7,��
2023/08/24,18:30,0.549,0.831,0.507,1.027,0.752,0.328,0.582,0.538,��,8.3,��
2023/08/24,18:40,0.548,0.831,0.508,1.026,0.753,0.327,0.583,0.539,��,7.8,��
2023/08/24,18:50,0.549,0.832,0.508,1.026,0.751,0.327,0.583,0.539,��,9.1,��
2023/08/24,19:00,0.551,0.830,0.509,1.028,0.752,0.328,0.583,0.539,��,7.9,��
2023/08/24,19:10,0.551,0.831,0.508,1.027,0.749,0.327,0.583,0.538,��,7.3,��
2023/08/24,19:20,0.551,0.830,0.508,1.024,0.751,0.327,0.583,0.539,��,7.9,��
2023/08/24,19:30,0.551,0.832,0.510,1.025,0.752,0.329,0.584,0.540,��,6.4,��
2023/08/24,19:40,0.551,0.831,0.509,1.025,0.752,0.327,0.584,0.540,��,5.5,��
2023/08/24,19:50,0.551,0.831,0.508,1.025,0.753,0.328,0.583,0.540,��,5.4,��
2023/08/24,20:00,0.551,0.832,0.508,1.025,0.750,0.326,0.584,0.539,��,6.2,��
2023/08/24,20:10,0.552,0.831,0.509,1.024,0.752,0.328,0.584,0.540,��,7.4,��
2023/08/24,20:20,0.550,0.830,0.509,1.024,0.750,0.328,0.585,0.539,��,7.7,��
2023/08/24,20:30,0.550,0.830,0.508,1.027,0.752,0.328,0.583,0.540,��,7.1,��
2023/08/24,20:40,0.551,0.833,0.507,1.023,0.750,0.329,0.583,0.540,��,6.4,��
2023/08/24,20:50,0.551,0.833,0.507,1.024,0.750,0.328,0.585,0.539,��,6.9,��
2023/08/24,21:00,0.548,0.831,0.510,1.024,0.752,0.327,0.583,0.540,��,7.0,��
2023/08/24,21:10,0.552,0.831,0.509,1.021,0.754,0.328,0.584,0.539,��쓌,7.2,��
2023/08/24,21:20,0.548,0.833,0.510,1.024,0.751,0.328,0.584,0.539,��,6.9,��
2023/08/24,21:30,0.552,0.833,0.508,1.023,0.756,0.328,0.584,0.539,��,7.9,��
2023/08/24,21:40,0.551,0.831,0.509,1.024,0.754,0.329,0.584,0.538,��,8.3,��
2023/08/24,21:50,0.550,0.833,0.509,1.026,0.752,0.329,0.582,0.539,��,8.1,��
2023/08/24,22:00,0.552,0.834,0.509,1.025,0.752,0.327,0.583,0.540,��,8.5,��
2023/08/24,22:10,0.548,0.831,0.510,1.022,0.754,0.329,0.585,0.540,��,8.1,��
2023/08/24,22:20,0.550,0.831,0.508,1.025,0.753,0.328,0.583,0.540,��,7.4,��
2023/08/24,22:30,0.549,0.832,0.509,1.026,0.752,0.329,0.583,0.540,��,6.0,��
2023/08/24,22:40,0.548,0.832,0.509,1.026,0.752,0.330,0.583,0.540,��,5.0,��
2023/08/24,22:50,0.551,0.832,0.509,1.027,0.754,0.328,0.585,0.539,��,4.0,��
2023/08/24,23:00,0.549,0.831,0.507,1.024,0.752,0.328,0.583,0.539,��,2.9,��
2023/08/24,23:10,0.552,0.832,0.509,1.026,0.751,0.329,0.584,0.539,��쐼,2.9,��
2023/08/24,23:20,0.549,0.832,0.511,1.025,0.752,0.326,0.583,0.540,��쐼,1.7,��
2023/08/24,23:30,0.550,0.833,0.508,1.026,0.751,0.327,0.584,0.540,��,3.2,��
2023/08/24,23:40,0.551,0.834,0.509,1.024,0.751,0.328,0.584,0.539,��쐼,3.8,��
2023/08/24,23:50,0.551,0.833,0.508,1.025,0.753,0.329,0.583,0.541,��,4.4,��
